User: anonymous   Login
Location: Goheenville
(40.9070°N, 79.3720°W)
Time: 05:53:56
(UTC-04:00)
Language:

Cosmos 1633 - Orbit

View from above orbital plane
View from above orbital plane
View from above satellite
View from above satellite

Ground track
Ground track

The orbit data is extracted from the following two-line orbital elements,

1 15592U 85020A   16122.19155532  .00002842  00000-0  10650-3 0  9991
2 15592  82.5408  11.5884 0014034 185.8383 174.2695 15.26753537701394
Epoch (UTC): 01 May 2016 04:35:50
Eccentricity: 0.0014034
inclination: 82.5408°
perigee height: 476 km
apogee height: 495 km
right ascension of ascending node: 11.5884°
argument of perigee: 185.8383°
revolutions per day: 15.26753537
mean anomaly at epoch: 174.2695°
orbit number at epoch: 70139

The dashed part of the orbit path shows where the satellite is in the earth's shadow,  

DLR